SCP
0 0 0 0 0 0 0 0 0 0 0 0 0 0 0 0 0 0 0 0 0 0
0 0 0 0 0 0 0 0 0 0 0 0 0 0 0 0 0 0 0 0 0 0
0 0 0 0 0 0 0 0 0 0 0 0 0 0 0 0 0 0 0 0 0 0
0 0 0 0 0 0 0 0 0 0 0 0 0 0 0 0 0 0 0 0 0 0
0 0 0 0 0 0 0 0 0 0 0 0 0 0 0 0 0 0 0 0 0 0
0 0 0 0 0 0 0 0 0 0 0 0 0 0 0 0 0 0 0 0 0 0
0 0 0 0 0 0 0 0 0 0 0 0 0 0 0 0 0 0 0 0 0 0
0 0 0 0 0 0 0 0 0 0 0 0 0 0 0 0 0 0 0 0 0 0
0 0 0 0 0 0 0 0 0 0 0 0 0 0 0 0 0 0 0 0 0 0
0 0 0 0 0 0 0 0 0 0 0 0 0 0 0 0 0 0 -0 -0 -0 -0
0 0 0 0 0 0 0 0 0 0 0 0 0 0 0 0 -0 -0 0 0 0 0
0 0 0 0 0 0 0 0 0 0 0 0 0 0 -0 -0 -0 0 0 0 0 0
0 0 0 0 0 0 0 0 0 0 0 0 0 -0 -0 0 0 0 0 0 0 0
0 0 0 0 0 0 0 0 0 0 0 0 -0 -0 -0 0 0 0 0 0 0 0
Wind_Speed_500mb
70 73 56 58 49 46 45 43 49 43 42 45 51 55 55 58 56 56 59 60 61 63
58 60 61 49 44 42 34 18 20 28 34 57 53 52 55 58 59 57 59 61 64 68
53 53 48 39 33 23 32 34 31 37 50 52 55 58 59 58 59 60 62 63 64 64
50 40 36 37 26 37 29 33 43 51 52 55 58 60 59 62 63 65 67 68 69 71
36 30 28 23 22 30 34 42 44 47 51 57 60 62 63 66 67 68 70 72 70 72
25 22 23 29 37 45 31 44 45 50 57 62 64 65 65 67 68 71 71 72 72 73
21 22 28 31 26 30 40 42 52 58 62 64 64 62 62 65 68 69 68 67 69 71
31 37 33 27 27 39 46 56 56 62 61 61 61 61 59 61 64 69 76 81 85 90
29 23 24 29 36 50 52 54 60 58 61 62 60 58 61 67 74 78 81 85 88 91
20 19 28 34 44 47 55 53 58 62 58 59 61 59 59 66 76 83 87 86 83 84
17 24 31 41 48 50 54 58 60 58 57 58 62 70 78 75 62 60 63 65 66 67
22 30 38 44 45 55 58 55 54 53 57 70 74 75 56 49 56 64 69 69 69 69
26 32 38 42 53 55 48 53 55 69 59 68 73 56 53 53 62 70 73 77 70 71
28 34 40 44 48 48 53 57 57 52 66 69 59 61 58 64 68 71 76 74 77 70
Wind_Direction_500mb
258 253 250 252 251 242 240 238 277 288 263 277 297 297 296 296 290 286 277 275 275 275
256 244 239 241 240 240 260 254 259 270 267 295 294 290 286 283 281 278 275 272 272 271
248 236 233 222 232 249 267 279 280 285 292 291 296 296 292 284 280 276 275 274 274 275
255 239 237 238 233 262 265 268 284 290 290 301 299 294 285 280 278 275 276 275 275 276
249 234 233 227 248 275 279 291 284 292 295 291 286 283 281 279 277 276 275 274 272 272
257 219 217 250 270 292 290 279 288 287 286 286 285 284 282 280 279 277 277 275 274 273
239 236 267 282 268 281 285 285 286 287 288 289 289 287 285 282 280 279 277 274 271 269
251 256 283 268 289 284 285 291 292 292 294 292 291 289 290 285 279 276 273 271 268 269
267 267 260 284 280 289 291 290 294 293 294 295 293 290 286 286 286 285 285 285 286 283
275 268 275 278 290 290 293 297 295 295 298 296 295 294 290 286 286 289 288 287 284 284
272 272 278 285 288 296 295 296 297 300 300 297 292 289 292 293 292 291 294 293 290 286
273 279 286 292 296 295 298 304 305 301 294 298 308 311 313 308 304 304 304 303 294 292
285 297 299 297 297 307 309 304 299 302 307 312 316 319 317 317 311 306 301 301 293 291
305 301 301 301 308 306 306 306 312 306 310 318 322 321 320 317 310 308 304 300 297 295
Wind_Speed_850mb
70 73 56 58 49 46 45 43 49 43 42 45 51 55 55 58 56 56 59 60 61 63
58 60 61 49 44 42 34 18 20 28 34 57 53 52 55 58 59 57 59 61 64 68
53 53 48 39 33 23 32 34 31 37 50 52 55 58 59 58 59 60 62 63 64 64
50 40 36 37 26 37 29 33 43 51 52 55 58 60 59 62 63 65 67 68 69 71
36 30 28 23 22 30 34 42 44 47 51 57 60 62 63 66 67 68 70 72 70 72
25 22 23 29 37 45 31 44 45 50 57 62 64 65 65 67 68 71 71 72 72 73
21 22 28 31 26 30 40 42 52 58 62 64 64 62 62 65 68 69 68 67 69 71
31 37 33 27 27 39 46 56 56 62 61 61 61 61 59 61 64 69 76 81 85 90
29 23 24 29 36 50 52 54 60 58 61 62 60 58 61 67 74 78 81 85 88 91
20 19 28 34 44 47 55 53 58 62 58 59 61 59 59 66 76 83 87 86 83 84
17 24 31 41 48 50 54 58 60 58 57 58 62 70 78 75 62 60 63 65 66 67
22 30 38 44 45 55 58 55 54 53 57 70 74 75 56 49 56 64 69 69 69 69
26 32 38 42 53 55 48 53 55 69 59 68 73 56 53 53 62 70 73 77 70 71
28 34 40 44 48 48 53 57 57 52 66 69 59 61 58 64 68 71 76 74 77 70
Wind_Direction_850mb
258 253 250 252 251 242 240 238 277 288 263 277 297 297 296 296 290 286 277 275 275 275
256 244 239 241 240 240 260 254 259 270 267 295 294 290 286 283 281 278 275 272 272 271
248 236 233 222 232 249 267 279 280 285 292 291 296 296 292 284 280 276 275 274 274 275
255 239 237 238 233 262 265 268 284 290 290 301 299 294 285 280 278 275 276 275 275 276
249 234 233 227 248 275 279 291 284 292 295 291 286 283 281 279 277 276 275 274 272 272
257 219 217 250 270 292 290 279 288 287 286 286 285 284 282 280 279 277 277 275 274 273
239 236 267 282 268 281 285 285 286 287 288 289 289 287 285 282 280 279 277 274 271 269
251 256 283 268 289 284 285 291 292 292 294 292 291 289 290 285 279 276 273 271 268 269
267 267 260 284 280 289 291 290 294 293 294 295 293 290 286 286 286 285 285 285 286 283
275 268 275 278 290 290 293 297 295 295 298 296 295 294 290 286 286 289 288 287 284 284
272 272 278 285 288 296 295 296 297 300 300 297 292 289 292 293 292 291 294 293 290 286
273 279 286 292 296 295 298 304 305 301 294 298 308 311 313 308 304 304 304 303 294 292
285 297 299 297 297 307 309 304 299 302 307 312 316 319 317 317 311 306 301 301 293 291
305 301 301 301 308 306 306 306 312 306 310 318 322 321 320 317 310 308 304 300 297 295